Location: Pedholt
(56.0260°N, 10.2097°E)
Time: 02:52:30
(UTC+00:00)

Transit 2A Rocket - Pass Details

Date: 04 August 2021
Orbit: 586 x 917 km, 66.7° (Epoch: 27 September)

Event Time Altitude Azimuth Distance (km) Brightness Sun altitude
Rises 22:01:49 0° 312° (NW) 3,263 9.4 -14.9°
Reaches altitude 10° 22:04:33 10° 299° (WNW) 2,388 8.3 -15.0°
Maximum altitude 22:08:54 24° 247° (WSW) 1,666 6.7 -15.2°
Enters shadow 22:12:27 14° 202° (SSW) 2,228 7.0 -15.4°
Drops below altitude 10° 22:13:30 10° 195° (SSW) 2,528 - -15.4°
Sets 22:16:29 0° 183° (S) 3,498 - -15.6°
